Starlink 5472

operational
NORAD ID: 54767 Int'l Des: 2022-175 Owner: SPXS Country: US Constellation: starlink
LEOCIRCULAR

关于 Starlink 5472

正在加载描述...

实时位置

正在加载3D地球...

即将过境

高度历史

Altitude vs Time

uPlot chart will show altitude changes over time

两行轨道根数

1 54767U 22175K 25351.57835354 .00005487 00000-0 36225-3 0 9997
2 54767 53.2171 52.6876 0001328 74.8172 285.2967 15.08870640167526
Epoch: Dec 17, 2025 • Age: 22 hours

当前状态

高度 547.7 km
速度 7.59 km/s
星下点 -25.33°S, 10.32°W
发射日期 Dec 17, 2022
运行时间 3 years
类型 internet

技术详情

分类 Payload
质量 305.00 kg
干质量 290.00 kg
总质量 305.00 kg
长度 0.20 m
直径 2.80 m
跨度 9.00 m
形状 Box + pan
制造商 SPXS
平台类型 Starlink
阶段状态 In Orbit
所有者/国家 SPXS/US

大型星座

Loading constellations...